Regional Weather Roundup
Issued by NWS

Home | Current Version | Previous Version | Graphics & Text | Print | Product List | Glossary Off
Versions: 1 2 3 4 5 6 7 8 9 10 11 12 13 14 15 16 17 18 19 20 21 22 23 24 25 26 27 28 29 30 31 32 33 34 35 36 37 38 39 40 41 42 43 44 45 46 47 48 49 50

000
ASUS45 KPSR 301510
RWRAZ

ARIZONA HOURLY REGIONAL WEATHER ROUNDUP
NATIONAL WEATHER SERVICE PHOENIX AZ
800 AM MST THU JUL 30 2015

NOTE: FAIR INDICATES FEW OR NO CLOUDS BELOW 12,000 FEET WITH NO
SIGNIFICANT WEATHER AND/OR OBSTRUCTIONS TO VISIBILITY.

AZZ001>003-036-301600-
NORTHWEST ARIZONA

CITY           SKY/WX    TMP DP  RH WIND       PRES   REMARKS
BULLHEAD CITY  CLOUDY    91  63  38 CALM      29.98R
KINGMAN        CLOUDY    83  57  41 SE6       30.19R
$$

AZZ004>008-015-016-018-301600-
NORTH CENTRAL ARIZONA

CITY           SKY/WX    TMP DP  RH WIND       PRES   REMARKS
GRAND CANYON   MOSUNNY   68  51  54 CALM      30.42R
WILLIAMS       PTSUNNY   68  52  56 CALM      30.48R
PRESCOTT       MOSUNNY   75  56  51 CALM      30.29S
FLAGSTAFF      CLOUDY    61  52  72 CALM      30.45R
PAYSON         CLOUDY    70  59  68 VRB3      30.33R
PAGE           SUNNY     79  56  45 NW5       30.26R
$$

AZZ009>014-017-301600-
NORTHEAST ARIZONA

CITY           SKY/WX    TMP DP  RH WIND       PRES   REMARKS
WINSLOW        CLOUDY    70  61  73 CALM      30.33R
SAINT JOHNS    CLOUDY    66  59  78 NE3       30.36R
SHOW LOW       CLOUDY    59  57  94 CALM      30.41S
$$

AZZ023-301600-
GREATER PHOENIX AREA

CITY           SKY/WX    TMP DP  RH WIND       PRES   REMARKS
PHOENIX        PTSUNNY   88  63  43 E10       30.01R
GLENDALE       PTSUNNY   90  64  43 NE6       30.04R
LUKE AFB       MOSUNNY   88  64  45 NE3       30.02R
DEER VALLEY    MOSUNNY   87  61  41 SE5       30.04R
SCOTTSDALE     MOSUNNY   88  62  41 E5        30.06R
MESA-FALCON    PTSUNNY   86  61  42 N7        30.04R
MESA-GATEWAY   PTSUNNY   86  63  45 E7        30.06R
CHANDLER       PTSUNNY   86  64  48 NE8       30.04R
$$

AZZ027-028-301600-
SOUTHWEST MARICOPA COUNTY AND PINAL COUNTY

CITY           SKY/WX    TMP DP  RH WIND       PRES   REMARKS
CASA GRANDE    MOSUNNY   84  63  48 CALM      30.04R
GILA BEND      MOSUNNY   88  65  45 SE2       29.98R
$$

AZZ503-504-507>509-301600-
SOUTHEAST ARIZONA

CITY           SKY/WX    TMP DP  RH WIND       PRES   REMARKS
TUCSON         SUNNY     81  62  52 E10       30.14R
DAVIS-MONTHAN  MOSUNNY   79  64  58 SE14      30.13R
RYAN FIELD     SUNNY     84  64  51 SE6       30.13R
NOGALES        MOSUNNY   75  62  64 VRB3      30.21R
SIERRA VISTA   SUNNY     73  61  66 SE8       30.28R
DOUGLAS          N/A    N/A N/A N/A MISG      30.24S
SAFFORD        PTSUNNY   75  65  70 SE7       30.21R
$$

AZZ020-021-025-026-031-301600-
SOUTHWEST ARIZONA

CITY           SKY/WX    TMP DP  RH WIND       PRES   REMARKS
YUMA           MOSUNNY   92  65  40 E5        29.94R
$$

CAZ031-033-041-043-047-048-061-301600-
SOUTHERN CALIFORNIA

CITY           SKY/WX    TMP DP  RH WIND       PRES   REMARKS
DOWNTOWN L.A.  PTSUNNY   70  63  78 CALM      29.99R
L.A. AIRPORT   PTSUNNY   69  65  86 W7        30.00R
SAN DIEGO      PTSUNNY   73  64  73 CALM      30.02R
BURBANK        PTSUNNY   73  63  70 S3        30.00R
ONTARIO        PTSUNNY   74  62  66 CALM      30.01R
RIVERSIDE      CLOUDY    74  63  68 CALM      30.01R
PALM SPRINGS   CLOUDY    91  66  43 CALM      29.97R
EL CENTRO NAS  MOSUNNY   88  73  61 S3        29.93R
IMPERIAL       SUNNY     89  74  60 CALM      29.90R
BLYTHE         PTSUNNY   93  63  36 S10       29.94R
NEEDLES        CLOUDY    95  57  27 W5        29.98R
$$

NVZ020-UTZ003-301600-
SOUTHERN NEVADA-UTAH

CITY           SKY/WX    TMP DP  RH WIND       PRES   REMARKS
LAS VEGAS      CLOUDY    90  51  26 SE3       30.03R
SALT LAKE CITY MOSUNNY   72  34  24 S6        30.30S
$$

NMZ009-TXZ055-301600-
NEW MEXICO-WEST TEXAS

CITY           SKY/WX    TMP DP  RH WIND       PRES   REMARKS
ALBUQUERQUE    CLOUDY    68  58  70 CALM      30.40R
EL PASO        LGT RAIN  68  66  93 N18       30.25F
$$


........................KEY........................
SKY/WX - SKY CONDITION/WEATHER
TMP    - TEMPERATURE IN FAHRENHEIT
DP     - DEW POINT IN FAHRENHEIT
RH     - RELATIVE HUMIDITY IN PERCENT
WIND   - DIRECTION AND SPEED IN MILES PER HOUR (MPH)
VRB    - VARIABLE WIND DIRECTION
PRES   - MEAN SEA LEVEL PRESSURE IN INCHES OF MERCURY
         F - FALLING PRESSURE   R - RISING PRESSURE
         S - STEADY PRESSURE
VSB    - VISIBILITY IN MILES
HX     - HEAT INDEX IN FAHRENHEIT
WCI    - WIND CHILL INDEX IN FAHRENHEIT
TC     - TEMPERATURE IN CELSIUS WHICH IS ALSO KNOWN AS
         TEMPERATURE IN CENTIGRADE
AFB    - AIR FORCE BASE
         LUKE AFB IS LUKE AIR FORCE BASE
         DAVIS-MONTHAN IS DAVIS-MONTHAN AIR FORCE BASE
NAS    - NAVAL AIR STATION
         EL CENTRO NAS IS EL CENTRO NAVAL AIR STATION
N/A    - NOT AVAILABLE



USA.gov is the U.S. government's official web portal to all federal, state and local government web resources and services.